Time,TemperatureF,DewpointF,PressureIn,WindDirection,WindDirectionDegrees,WindSpeedMPH,WindSpeedGustMPH,Humidity,HourlyPrecipIn,Conditions,Clouds,dailyrainin,SoftwareType,DateUTC
2013-05-17 00:03:00,46.0,-99.9,-100.00,NNE,33,8.0,14.0,-999,-99.99,,,-99.99,,2013-05-17 05:03:00,
2013-05-17 00:14:00,46.0,-99.9,-100.00,NNE,33,8.0,14.0,-999,-99.99,,,-99.99,,2013-05-17 05:14:00,
2013-05-17 00:22:00,46.0,-99.9,-100.00,NNE,33,8.0,14.0,-999,-99.99,,,-99.99,,2013-05-17 05:22:00,
2013-05-17 00:32:00,46.0,-99.9,-100.00,NNE,33,8.0,14.0,-999,-99.99,,,-99.99,,2013-05-17 05:32:00,
2013-05-17 00:40:00,46.0,-99.9,-100.00,NE,35,10.0,14.0,-999,-99.99,,,-99.99,,2013-05-17 05:40:00,
2013-05-17 01:02:00,46.0,-99.9,-100.00,NE,35,10.0,14.0,-999,-99.99,,,-99.99,,2013-05-17 06:02:00,
2013-05-17 01:12:00,46.0,-99.9,-100.00,NE,35,10.0,14.0,-999,-99.99,,,-99.99,,2013-05-17 06:12:00,
2013-05-17 01:22:00,46.0,-99.9,-100.00,NE,35,10.0,14.0,-999,-99.99,,,-99.99,,2013-05-17 06:22:00,
2013-05-17 01:32:00,46.0,-99.9,-100.00,NE,35,10.0,14.0,-999,-99.99,,,-99.99,,2013-05-17 06:32:00,
2013-05-17 01:40:00,48.0,-99.9,-100.00,NE,37,8.0,15.0,-999,-99.99,,,-99.99,,2013-05-17 06:40:00,
2013-05-17 02:03:00,48.0,-99.9,-100.00,NE,37,8.0,15.0,-999,-99.99,,,-99.99,,2013-05-17 07:03:00,
2013-05-17 02:11:00,48.0,-99.9,-100.00,NE,37,8.0,15.0,-999,-99.99,,,-99.99,,2013-05-17 07:11:00,
2013-05-17 02:21:00,48.0,-99.9,-100.00,NE,37,8.0,15.0,-999,-99.99,,,-99.99,,2013-05-17 07:21:00,
2013-05-17 02:32:00,48.0,-99.9,-100.00,NE,37,8.0,15.0,-999,-99.99,,,-99.99,,2013-05-17 07:32:00,
2013-05-17 02:40:00,48.0,-99.9,-100.00,NE,45,11.0,15.0,-999,-99.99,,,-99.99,,2013-05-17 07:40:00,
2013-05-17 03:03:00,48.0,-99.9,-100.00,NE,45,11.0,15.0,-999,-99.99,,,-99.99,,2013-05-17 08:03:00,
2013-05-17 03:12:00,48.0,-99.9,-100.00,NE,45,11.0,15.0,-999,-99.99,,,-99.99,,2013-05-17 08:12:00,
2013-05-17 03:23:00,48.0,-99.9,-100.00,NE,45,11.0,15.0,-999,-99.99,,,-99.99,,2013-05-17 08:23:00,
2013-05-17 03:34:00,48.0,-99.9,-100.00,NE,45,11.0,15.0,-999,-99.99,,,-99.99,,2013-05-17 08:34:00,
2013-05-17 03:40:00,48.0,-99.9,-100.00,NE,37,10.0,15.0,-999,-99.99,,,-99.99,,2013-05-17 08:40:00,
2013-05-17 04:02:00,48.0,-99.9,-100.00,NE,37,10.0,15.0,-999,-99.99,,,-99.99,,2013-05-17 09:02:00,
2013-05-17 04:12:00,48.0,-99.9,-100.00,NE,37,10.0,15.0,-999,-99.99,,,-99.99,,2013-05-17 09:12:00,
2013-05-17 04:23:00,48.0,-99.9,-100.00,NE,37,10.0,15.0,-999,-99.99,,,-99.99,,2013-05-17 09:23:00,
2013-05-17 04:33:00,48.0,-99.9,-100.00,NE,37,10.0,15.0,-999,-99.99,,,-99.99,,2013-05-17 09:33:00,
2013-05-17 04:40:00,48.0,-99.9,-100.00,NE,43,12.0,18.0,-999,-99.99,,,-99.99,,2013-05-17 09:40:00,
2013-05-17 05:03:00,48.0,-99.9,-100.00,NE,43,12.0,18.0,-999,-99.99,,,-99.99,,2013-05-17 10:03:00,
2013-05-17 05:12:00,48.0,-99.9,-100.00,NE,43,12.0,18.0,-999,-99.99,,,-99.99,,2013-05-17 10:12:00,
2013-05-17 05:23:00,48.0,-99.9,-100.00,NE,43,12.0,18.0,-999,-99.99,,,-99.99,,2013-05-17 10:23:00,
2013-05-17 05:33:00,48.0,-99.9,-100.00,NE,43,12.0,18.0,-999,-99.99,,,-99.99,,2013-05-17 10:33:00,
2013-05-17 05:40:00,45.0,-99.9,-100.00,NE,44,12.0,19.0,-999,-99.99,,,-99.99,,2013-05-17 10:40:00,
2013-05-17 06:02:00,45.0,-99.9,-100.00,NE,44,12.0,19.0,-999,-99.99,,,-99.99,,2013-05-17 11:02:00,
2013-05-17 06:12:00,45.0,-99.9,-100.00,NE,44,12.0,19.0,-999,-99.99,,,-99.99,,2013-05-17 11:12:00,
2013-05-17 06:23:00,45.0,-99.9,-100.00,NE,44,12.0,19.0,-999,-99.99,,,-99.99,,2013-05-17 11:23:00,
2013-05-17 06:34:00,45.0,-99.9,-100.00,NE,44,12.0,19.0,-999,-99.99,,,-99.99,,2013-05-17 11:34:00,
2013-05-17 06:53:00,43.0,-99.9,-100.00,NE,44,11.0,23.0,-999,-99.99,,,-99.99,,2013-05-17 11:53:00,
2013-05-17 07:03:00,42.0,-99.9,-100.00,NE,47,7.0,14.0,-999,-99.99,,,-99.99,,2013-05-17 12:03:00,
2013-05-17 07:12:00,42.0,-99.9,-100.00,NE,47,7.0,14.0,-999,-99.99,,,-99.99,,2013-05-17 12:12:00,
2013-05-17 07:23:00,43.0,-99.9,-100.00,NE,44,11.0,23.0,-999,-99.99,,,-99.99,,2013-05-17 12:23:00,
2013-05-17 07:33:00,43.0,-99.9,-100.00,NE,44,11.0,23.0,-999,-99.99,,,-99.99,,2013-05-17 12:33:00,
2013-05-17 07:40:00,43.0,-99.9,-100.00,NE,41,9.0,16.0,-999,-99.99,,,-99.99,,2013-05-17 12:40:00,
2013-05-17 07:43:00,43.0,-99.9,-100.00,NE,44,11.0,23.0,-999,-99.99,,,-99.99,,2013-05-17 12:43:00,
2013-05-17 07:53:00,43.0,-99.9,-100.00,NE,44,11.0,23.0,-999,-99.99,,,-99.99,,2013-05-17 12:53:00,
2013-05-17 08:04:00,43.0,-99.9,-100.00,NE,41,9.0,16.0,-999,-99.99,,,-99.99,,2013-05-17 13:04:00,
2013-05-17 08:12:00,43.0,-99.9,-100.00,NE,41,9.0,16.0,-999,-99.99,,,-99.99,,2013-05-17 13:12:00,
2013-05-17 08:23:00,43.0,-99.9,-100.00,NE,41,9.0,16.0,-999,-99.99,,,-99.99,,2013-05-17 13:23:00,
2013-05-17 08:33:00,43.0,-99.9,-100.00,NE,41,9.0,16.0,-999,-99.99,,,-99.99,,2013-05-17 13:33:00,
2013-05-17 08:40:00,44.0,-99.9,-100.00,NE,36,10.0,20.0,-999,-99.99,,,-99.99,,2013-05-17 13:40:00,
2013-05-17 09:02:00,44.0,-99.9,-100.00,NE,36,10.0,20.0,-999,-99.99,,,-99.99,,2013-05-17 14:02:00,
2013-05-17 09:13:00,44.0,-99.9,-100.00,NE,36,10.0,20.0,-999,-99.99,,,-99.99,,2013-05-17 14:13:00,
2013-05-17 09:22:00,44.0,-99.9,-100.00,NE,36,10.0,20.0,-999,-99.99,,,-99.99,,2013-05-17 14:22:00,
2013-05-17 09:34:00,44.0,-99.9,-100.00,NE,36,10.0,20.0,-999,-99.99,,,-99.99,,2013-05-17 14:34:00,
2013-05-17 09:40:00,45.0,-99.9,-100.00,NE,40,12.0,19.0,-999,-99.99,,,-99.99,,2013-05-17 14:40:00,
2013-05-17 10:03:00,45.0,-99.9,-100.00,NE,40,12.0,19.0,-999,-99.99,,,-99.99,,2013-05-17 15:03:00,
2013-05-17 10:14:00,45.0,-99.9,-100.00,NE,40,12.0,19.0,-999,-99.99,,,-99.99,,2013-05-17 15:14:00,
2013-05-17 10:25:00,45.0,-99.9,-100.00,NE,40,12.0,19.0,-999,-99.99,,,-99.99,,2013-05-17 15:25:00,
2013-05-17 10:38:00,45.0,-99.9,-100.00,NE,40,12.0,19.0,-999,-99.99,,,-99.99,,2013-05-17 15:38:00,
2013-05-17 10:40:00,46.0,-99.9,-100.00,NE,44,15.0,20.0,-999,-99.99,,,-99.99,,2013-05-17 15:40:00,
2013-05-17 11:08:00,46.0,-99.9,-100.00,NE,44,15.0,20.0,-999,-99.99,,,-99.99,,2013-05-17 16:08:00,
2013-05-17 11:14:00,46.0,-99.9,-100.00,NE,44,15.0,20.0,-999,-99.99,,,-99.99,,2013-05-17 16:14:00,
2013-05-17 11:26:00,46.0,-99.9,-100.00,NE,44,15.0,20.0,-999,-99.99,,,-99.99,,2013-05-17 16:26:00,
2013-05-17 11:37:00,46.0,-99.9,-100.00,NE,44,15.0,20.0,-999,-99.99,,,-99.99,,2013-05-17 16:37:00,
2013-05-17 11:40:00,48.0,-99.9,-100.00,NE,44,15.0,25.0,-999,-99.99,,,-99.99,,2013-05-17 16:40:00,
2013-05-17 12:08:00,48.0,-99.9,-100.00,NE,44,15.0,25.0,-999,-99.99,,,-99.99,,2013-05-17 17:08:00,
2013-05-17 12:19:00,48.0,-99.9,-100.00,NE,44,15.0,25.0,-999,-99.99,,,-99.99,,2013-05-17 17:19:00,
2013-05-17 12:30:00,48.0,-99.9,-100.00,NE,44,15.0,25.0,-999,-99.99,,,-99.99,,2013-05-17 17:30:00,
2013-05-17 13:09:00,46.0,-99.9,-100.00,NE,41,15.0,24.0,-999,-99.99,,,-99.99,,2013-05-17 18:09:00,
2013-05-17 13:20:00,46.0,-99.9,-100.00,NE,41,15.0,24.0,-999,-99.99,,,-99.99,,2013-05-17 18:20:00,
2013-05-17 13:30:00,46.0,-99.9,-100.00,NE,41,15.0,24.0,-999,-99.99,,,-99.99,,2013-05-17 18:30:00,
2013-05-17 13:40:00,46.0,-99.9,-100.00,NE,43,14.0,24.0,-999,-99.99,,,-99.99,,2013-05-17 18:40:00,
2013-05-17 13:41:00,46.0,-99.9,-100.00,NE,41,16.0,26.0,-999,-99.99,,,-99.99,,2013-05-17 18:41:00,
2013-05-17 13:51:00,-999.0,-99.9,-100.00,NE,41,16.0,26.0,-999,-99.99,,,-99.99,,2013-05-17 18:51:00,
2013-05-17 14:01:00,46.0,-99.9,-100.00,NE,41,16.0,26.0,-999,-99.99,,,-99.99,,2013-05-17 19:01:00,
2013-05-17 14:10:00,46.0,-99.9,-100.00,NE,43,14.0,24.0,-999,-99.99,,,-99.99,,2013-05-17 19:10:00,
2013-05-17 14:20:00,46.0,-99.9,-100.00,NE,43,14.0,24.0,-999,-99.99,,,-99.99,,2013-05-17 19:20:00,
2013-05-17 14:31:00,46.0,-99.9,-100.00,NE,43,14.0,24.0,-999,-99.99,,,-99.99,,2013-05-17 19:31:00,
2013-05-17 14:40:00,48.0,-99.9,-100.00,NE,37,13.0,22.0,-999,-99.99,,,-99.99,,2013-05-17 19:40:00,
2013-05-17 15:10:00,48.0,-99.9,-100.00,NE,37,13.0,22.0,-999,-99.99,,,-99.99,,2013-05-17 20:10:00,
2013-05-17 15:20:00,48.0,-99.9,-100.00,NE,37,13.0,22.0,-999,-99.99,,,-99.99,,2013-05-17 20:20:00,
2013-05-17 15:30:00,48.0,-99.9,-100.00,NE,37,13.0,22.0,-999,-99.99,,,-99.99,,2013-05-17 20:30:00,
2013-05-17 16:07:00,51.0,-99.9,-100.00,NE,42,15.0,24.0,-999,-99.99,,,-99.99,,2013-05-17 21:07:00,
2013-05-17 16:17:00,51.0,-99.9,-100.00,NE,42,15.0,24.0,-999,-99.99,,,-99.99,,2013-05-17 21:17:00,
2013-05-17 16:26:00,52.0,-99.9,-100.00,NE,44,18.0,30.0,-999,-99.99,,,-99.99,,2013-05-17 21:26:00,
2013-05-17 16:39:00,52.0,-99.9,-100.00,NE,44,18.0,30.0,-999,-99.99,,,-99.99,,2013-05-17 21:39:00,
2013-05-17 16:40:00,52.0,-99.9,-100.00,NE,46,14.0,23.0,-999,-99.99,,,-99.99,,2013-05-17 21:40:00,
2013-05-17 16:49:00,52.0,-99.9,-100.00,NE,44,18.0,30.0,-999,-99.99,,,-99.99,,2013-05-17 21:49:00,
2013-05-17 16:58:00,52.0,-99.9,-100.00,NE,44,18.0,30.0,-999,-99.99,,,-99.99,,2013-05-17 21:58:00,
2013-05-17 17:07:00,52.0,-99.9,-100.00,NE,46,14.0,23.0,-999,-99.99,,,-99.99,,2013-05-17 22:07:00,
2013-05-17 17:17:00,52.0,-99.9,-100.00,NE,46,14.0,23.0,-999,-99.99,,,-99.99,,2013-05-17 22:17:00,
2013-05-17 17:28:00,52.0,-99.9,-100.00,NE,46,14.0,23.0,-999,-99.99,,,-99.99,,2013-05-17 22:28:00,
2013-05-17 17:38:00,52.0,-99.9,-100.00,NE,46,14.0,23.0,-999,-99.99,,,-99.99,,2013-05-17 22:38:00,
2013-05-17 17:40:00,49.0,-99.9,-100.00,NE,46,16.0,25.0,-999,-99.99,,,-99.99,,2013-05-17 22:40:00,
2013-05-17 18:05:00,49.0,-99.9,-100.00,NE,46,16.0,25.0,-999,-99.99,,,-99.99,,2013-05-17 23:05:00,
2013-05-17 18:13:00,49.0,-99.9,-100.00,NE,46,16.0,25.0,-999,-99.99,,,-99.99,,2013-05-17 23:13:00,
2013-05-17 18:23:00,49.0,-99.9,-100.00,NE,46,16.0,25.0,-999,-99.99,,,-99.99,,2013-05-17 23:23:00,
2013-05-17 18:38:00,49.0,-99.9,-100.00,NE,46,16.0,25.0,-999,-99.99,,,-99.99,,2013-05-17 23:38:00,
2013-05-17 18:40:00,50.0,-99.9,-100.00,NE,43,15.0,24.0,-999,-99.99,,,-99.99,,2013-05-17 23:40:00,
2013-05-17 19:02:00,50.0,-99.9,-100.00,NE,43,15.0,24.0,-999,-99.99,,,-99.99,,2013-05-18 00:02:00,
2013-05-17 19:14:00,50.0,-99.9,-100.00,NE,43,15.0,24.0,-999,-99.99,,,-99.99,,2013-05-18 00:14:00,
2013-05-17 19:22:00,50.0,-99.9,-100.00,NE,43,15.0,24.0,-999,-99.99,,,-99.99,,2013-05-18 00:22:00,
2013-05-17 19:34:00,50.0,-99.9,-100.00,NE,43,15.0,24.0,-999,-99.99,,,-99.99,,2013-05-18 00:34:00,
2013-05-17 19:40:00,50.0,-99.9,-100.00,NE,40,13.0,20.0,-999,-99.99,,,-99.99,,2013-05-18 00:40:00,
2013-05-17 20:03:00,50.0,-99.9,-100.00,NE,40,13.0,20.0,-999,-99.99,,,-99.99,,2013-05-18 01:03:00,
2013-05-17 20:14:00,50.0,-99.9,-100.00,NE,40,13.0,20.0,-999,-99.99,,,-99.99,,2013-05-18 01:14:00,
2013-05-17 20:24:00,50.0,-99.9,-100.00,NE,40,13.0,20.0,-999,-99.99,,,-99.99,,2013-05-18 01:24:00,
2013-05-17 20:32:00,50.0,-99.9,-100.00,NE,40,13.0,20.0,-999,-99.99,,,-99.99,,2013-05-18 01:32:00,
2013-05-17 20:40:00,49.0,-99.9,-100.00,NE,39,13.0,20.0,-999,-99.99,,,-99.99,,2013-05-18 01:40:00,
2013-05-17 21:03:00,49.0,-99.9,-100.00,NE,39,13.0,20.0,-999,-99.99,,,-99.99,,2013-05-18 02:03:00,
2013-05-17 21:12:00,49.0,-99.9,-100.00,NE,39,13.0,20.0,-999,-99.99,,,-99.99,,2013-05-18 02:12:00,
2013-05-17 21:23:00,49.0,-99.9,-100.00,NE,39,13.0,20.0,-999,-99.99,,,-99.99,,2013-05-18 02:23:00,
2013-05-17 21:32:00,49.0,-99.9,-100.00,NE,39,13.0,20.0,-999,-99.99,,,-99.99,,2013-05-18 02:32:00,
2013-05-17 21:40:00,49.0,-99.9,-100.00,NE,38,14.0,21.0,-999,-99.99,,,-99.99,,2013-05-18 02:40:00,
2013-05-17 22:03:00,49.0,-99.9,-100.00,NE,38,14.0,21.0,-999,-99.99,,,-99.99,,2013-05-18 03:03:00,
2013-05-17 22:12:00,49.0,-99.9,-100.00,NE,38,14.0,21.0,-999,-99.99,,,-99.99,,2013-05-18 03:12:00,
2013-05-17 22:23:00,49.0,-99.9,-100.00,NE,38,14.0,21.0,-999,-99.99,,,-99.99,,2013-05-18 03:23:00,
2013-05-17 22:33:00,49.0,-99.9,-100.00,NE,38,14.0,21.0,-999,-99.99,,,-99.99,,2013-05-18 03:33:00,
2013-05-17 22:40:00,49.0,-99.9,-100.00,NE,43,14.0,26.0,-999,-99.99,,,-99.99,,2013-05-18 03:40:00,
2013-05-17 23:03:00,49.0,-99.9,-100.00,NE,43,14.0,26.0,-999,-99.99,,,-99.99,,2013-05-18 04:03:00,
2013-05-17 23:13:00,49.0,-99.9,-100.00,NE,43,14.0,26.0,-999,-99.99,,,-99.99,,2013-05-18 04:13:00,
2013-05-17 23:23:00,49.0,-99.9,-100.00,NE,43,14.0,26.0,-999,-99.99,,,-99.99,,2013-05-18 04:23:00,
2013-05-17 23:33:00,49.0,-99.9,-100.00,NE,43,14.0,26.0,-999,-99.99,,,-99.99,,2013-05-18 04:33:00,